RYR4M5 LCPH-LGAV

Flight info

Callsign RYR4M5
Flight time 1h 11m
Altitude 38000
Route GENOS DCT PEDER DCT LUTIG DCT RDS UL995 USINI DCT AKINA DCT RIPLI UL995 VARIX
Aircraft B38M/M-SDE1FGHILORVWXY/HB1

Departure

Time 2026-04-20 13:58
Airport Paphos International Airport (LCPH)

Arrival

Time 2026-04-20 15:09
Airport Athens Eleftherios Venizelos International Airport (LGAV)
Time Latitude Longitude Altitude Speed Heading
2026-04-20 13:38 34.71377 32.48840 46 ft 0 kts 154°
2026-04-20 13:48 34.71380 32.48839 48 ft 2 kts 154°
2026-04-20 13:49 34.71400 32.48826 45 ft 6 kts 153°
2026-04-20 13:49 34.71377 32.48840 48 ft 0 kts 155°
2026-04-20 13:50 34.71381 32.48838 48 ft 2 kts 155°
2026-04-20 13:51 34.71427 32.48812 44 ft 8 kts 155°
2026-04-20 13:51 34.71438 32.48759 44 ft 0 kts 59°
2026-04-20 13:51 34.71438 32.48758 44 ft 0 kts 64°
2026-04-20 13:53 34.71438 32.48759 44 ft 1 kts 63°
2026-04-20 13:53 34.71457 32.48808 43 ft 11 kts 66°
2026-04-20 13:54 34.71476 32.48862 48 ft 4 kts 66°
2026-04-20 13:54 34.71490 32.48893 47 ft 5 kts 62°
2026-04-20 13:54 34.71512 32.48947 47 ft 11 kts 55°
2026-04-20 13:54 34.71537 32.48972 48 ft 0 kts 25°
2026-04-20 13:55 34.71546 32.48977 49 ft 5 kts 25°
2026-04-20 13:55 34.71616 32.49016 47 ft 17 kts 40°
2026-04-20 13:55 34.71602 32.49189 49 ft 28 kts 110°
2026-04-20 13:56 34.71525 32.49440 44 ft 34 kts 111°
2026-04-20 13:56 34.71446 32.49699 46 ft 24 kts 110°
2026-04-20 13:56 34.71372 32.49805 47 ft 13 kts 122°
2026-04-20 13:56 34.71386 32.49860 47 ft 1 kts
2026-04-20 13:57 34.71392 32.49853 47 ft 6 kts 318°
2026-04-20 13:57 34.71427 32.49767 43 ft 0 kts 291°
2026-04-20 13:57 34.71503 32.49522 46 ft 74 kts 290°
2026-04-20 13:57 34.71777 32.48612 48 ft 153 kts 289°
2026-04-20 13:58 34.72196 32.47182 316 ft 204 kts 293°
2026-04-20 13:58 34.72700 32.45318 695 ft 255 kts 281°
2026-04-20 13:58 34.72397 32.43264 2393 ft 242 kts 249°
2026-04-20 13:58 34.71774 32.41372 3945 ft 244 kts 258°
2026-04-20 13:59 34.71317 32.39329 5050 ft 256 kts 258°
2026-04-20 13:59 34.70843 32.37244 6345 ft 258 kts 257°
2026-04-20 13:59 34.70352 32.35111 7434 ft 265 kts 257°
2026-04-20 13:59 34.69841 32.32928 8506 ft 272 kts 257°
2026-04-20 14:00 34.69314 32.30684 9558 ft 278 kts 257°
2026-04-20 14:00 34.68774 32.28396 10485 ft 288 kts 257°
2026-04-20 14:00 34.68204 32.25981 11100 ft 305 kts 257°
2026-04-20 14:00 34.67607 32.23456 11801 ft 318 kts 257°
2026-04-20 14:01 34.66998 32.20893 12281 ft 314 kts 257°
2026-04-20 14:01 34.66392 32.18336 11983 ft 313 kts 258°
2026-04-20 14:01 34.66167 32.15745 11719 ft 307 kts 277°
2026-04-20 14:01 34.66453 32.13183 11874 ft 312 kts 288°
2026-04-20 14:02 34.67409 32.10799 12518 ft 315 kts 302°
2026-04-20 14:02 34.68440 32.08426 13304 ft 320 kts 297°
2026-04-20 14:02 34.69435 32.05991 14046 ft 324 kts 298°
2026-04-20 14:02 34.70450 32.03532 14730 ft 327 kts 298°
2026-04-20 14:03 34.71481 32.01049 15414 ft 330 kts 298°
2026-04-20 14:03 34.72524 31.98543 16084 ft 333 kts 298°
2026-04-20 14:03 34.73576 31.96019 16740 ft 336 kts 298°
2026-04-20 14:03 34.74641 31.93464 17388 ft 340 kts 298°
2026-04-20 14:04 34.75700 31.90919 18010 ft 343 kts 298°
2026-04-20 14:04 34.76778 31.88326 18583 ft 345 kts 297°
2026-04-20 14:04 34.77865 31.85711 19107 ft 348 kts 297°
2026-04-20 14:04 34.78960 31.83074 19636 ft 350 kts 297°
2026-04-20 14:05 34.80063 31.80418 20159 ft 352 kts 297°
2026-04-20 14:05 34.81172 31.77746 20676 ft 355 kts 297°
2026-04-20 14:05 34.82289 31.75049 21177 ft 357 kts 296°
2026-04-20 14:05 34.83407 31.72352 21741 ft 358 kts 296°
2026-04-20 14:06 34.84534 31.69628 22231 ft 360 kts 296°
2026-04-20 14:06 34.85283 31.67816 22558 ft 362 kts 296°
2026-04-20 14:06 34.86418 31.65070 23041 ft 364 kts 296°
2026-04-20 14:06 34.87559 31.62307 23525 ft 366 kts 296°
2026-04-20 14:07 34.88709 31.59520 23921 ft 368 kts 296°
2026-04-20 14:07 34.89862 31.56724 24322 ft 370 kts 296°
2026-04-20 14:07 34.91005 31.53949 24716 ft 371 kts 295°
2026-04-20 14:07 34.92182 31.51090 25116 ft 373 kts 295°
2026-04-20 14:08 34.93331 31.48295 25516 ft 374 kts 295°
2026-04-20 14:08 34.94499 31.45451 25911 ft 376 kts 295°
2026-04-20 14:08 34.95673 31.42593 26284 ft 377 kts 295°
2026-04-20 14:08 34.96851 31.39719 26701 ft 378 kts 295°
2026-04-20 14:09 34.98026 31.36854 27186 ft 376 kts 295°
2026-04-20 14:09 34.99192 31.34007 27675 ft 374 kts 295°
2026-04-20 14:09 35.00352 31.31171 28152 ft 373 kts 295°
2026-04-20 14:09 35.01495 31.28377 28620 ft 371 kts 295°
2026-04-20 14:10 35.02644 31.25566 29079 ft 369 kts 295°
2026-04-20 14:10 35.03788 31.22765 29572 ft 368 kts 295°
2026-04-20 14:10 35.04928 31.19970 29996 ft 367 kts 295°
2026-04-20 14:10 35.06062 31.17187 30337 ft 366 kts 295°
2026-04-20 14:11 35.07194 31.14405 30679 ft 365 kts 295°
2026-04-20 14:11 35.08322 31.11632 31014 ft 364 kts 295°
2026-04-20 14:11 35.09447 31.08865 31344 ft 363 kts 295°
2026-04-20 14:11 35.10566 31.06110 31662 ft 362 kts 295°
2026-04-20 14:12 35.11684 31.03355 31971 ft 362 kts 295°
2026-04-20 14:12 35.12818 31.00556 31905 ft 373 kts 295°
2026-04-20 14:12 35.13986 30.97670 31855 ft 384 kts 295°
2026-04-20 14:12 35.15169 30.94744 31846 ft 394 kts 295°
2026-04-20 14:13 35.17649 30.88601 31955 ft 411 kts 295°
2026-04-20 14:13 35.18918 30.85456 32305 ft 411 kts 295°
2026-04-20 14:13 35.20181 30.82324 32738 ft 410 kts 295°
2026-04-20 14:14 35.21441 30.79197 33161 ft 409 kts 295°
2026-04-20 14:14 35.22695 30.76082 33586 ft 408 kts 295°
2026-04-20 14:14 35.23944 30.72975 33989 ft 407 kts 295°
2026-04-20 14:14 35.25192 30.69868 34309 ft 406 kts 295°
2026-04-20 14:15 35.26420 30.66809 34599 ft 405 kts 295°
2026-04-20 14:15 35.27661 30.63713 34892 ft 405 kts 294°
2026-04-20 14:15 35.28900 30.60621 35174 ft 405 kts 294°
2026-04-20 14:15 35.30139 30.57524 35449 ft 404 kts 294°
2026-04-20 14:16 35.31374 30.54435 35717 ft 404 kts 294°
2026-04-20 14:16 35.32608 30.51345 35977 ft 404 kts 294°
2026-04-20 14:16 35.33843 30.48251 36227 ft 403 kts 294°
2026-04-20 14:16 35.35073 30.45165 36472 ft 403 kts 294°
2026-04-20 14:17 35.36303 30.42076 36711 ft 403 kts 294°
2026-04-20 14:17 35.37530 30.38993 36938 ft 403 kts 294°
2026-04-20 14:17 35.38757 30.35905 37172 ft 402 kts 294°
2026-04-20 14:17 35.39982 30.32821 37400 ft 402 kts 294°
2026-04-20 14:18 35.41205 30.29739 37607 ft 402 kts 294°
2026-04-20 14:18 35.42426 30.26658 37820 ft 402 kts 294°
2026-04-20 14:18 35.43648 30.23572 37954 ft 403 kts 294°
2026-04-20 14:18 35.44865 30.20496 37961 ft 408 kts 294°
2026-04-20 14:19 35.47362 30.14174 37953 ft 413 kts 294°
2026-04-20 14:19 35.49873 30.07808 37956 ft 415 kts 293°
2026-04-20 14:20 35.52391 30.01409 37950 ft 416 kts 294°
2026-04-20 14:20 35.56843 29.90731 37952 ft 416 kts 295°
2026-04-20 14:21 35.62127 29.78056 37947 ft 417 kts 295°
2026-04-20 14:21 35.67379 29.65348 37952 ft 417 kts 294°
2026-04-20 14:22 35.72631 29.52609 37956 ft 417 kts 295°
2026-04-20 14:22 35.77906 29.39819 37951 ft 419 kts 295°
2026-04-20 14:23 35.83142 29.26977 37950 ft 419 kts 294°
2026-04-20 14:23 35.88403 29.14130 37950 ft 420 kts 295°
2026-04-20 14:24 35.93610 29.01311 37948 ft 420 kts 295°
2026-04-20 14:24 35.98830 28.88407 37944 ft 420 kts 295°
2026-04-20 14:25 36.04031 28.75463 37937 ft 420 kts 295°
2026-04-20 14:25 36.09230 28.62525 37946 ft 420 kts 295°
2026-04-20 14:26 36.14428 28.49537 37938 ft 420 kts 294°
2026-04-20 14:26 36.19568 28.36632 37937 ft 420 kts 295°
2026-04-20 14:27 36.24750 28.23570 37930 ft 419 kts 294°
2026-04-20 14:27 36.29846 28.10657 37937 ft 419 kts 295°
2026-04-20 14:28 36.34973 27.97642 37939 ft 419 kts 295°
2026-04-20 14:28 36.40072 27.84600 37945 ft 420 kts 294°
2026-04-20 14:29 36.43350 27.76218 38135 ft 418 kts 295°
2026-04-20 14:29 36.44611 27.72983 38448 ft 413 kts 294°
2026-04-20 14:29 36.45857 27.69783 38744 ft 408 kts 294°
2026-04-20 14:30 36.47090 27.66613 38866 ft 406 kts 294°
2026-04-20 14:30 36.48317 27.63454 38936 ft 405 kts 294°
2026-04-20 14:30 36.50758 27.57163 38968 ft 406 kts 294°
2026-04-20 14:31 36.53219 27.50807 38963 ft 408 kts 294°
2026-04-20 14:31 36.54455 27.47612 38858 ft 412 kts 294°
2026-04-20 14:31 36.55690 27.44415 38683 ft 415 kts 294°
2026-04-20 14:32 36.56937 27.41184 38444 ft 412 kts 294°
2026-04-20 14:32 36.58175 27.37974 38193 ft 410 kts 294°
2026-04-20 14:32 36.59410 27.34769 37992 ft 407 kts 294°
2026-04-20 14:32 36.60633 27.31593 37958 ft 405 kts 294°
2026-04-20 14:33 36.63992 27.22860 37988 ft 408 kts 294°
2026-04-20 14:33 36.68279 27.11468 37988 ft 407 kts 292°
2026-04-20 14:34 36.72111 27.00331 37996 ft 407 kts 292°
2026-04-20 14:34 36.76601 26.87350 37994 ft 406 kts 292°
2026-04-20 14:35 36.81069 26.74449 38002 ft 406 kts 292°
2026-04-20 14:35 36.84327 26.64967 38007 ft 406 kts 292°
2026-04-20 14:36 36.86553 26.58477 38007 ft 406 kts 292°
2026-04-20 14:36 36.88764 26.52020 38011 ft 406 kts 292°
2026-04-20 14:37 36.90983 26.45524 38008 ft 406 kts 292°
2026-04-20 14:37 36.93204 26.39009 38006 ft 406 kts 292°
2026-04-20 14:38 36.95409 26.32525 38008 ft 403 kts 292°
2026-04-20 14:38 36.96502 26.29309 37653 ft 400 kts 292°
2026-04-20 14:38 36.97582 26.26126 37289 ft 393 kts 292°
2026-04-20 14:39 36.98634 26.23022 36690 ft 392 kts 292°
2026-04-20 14:39 36.99694 26.19887 36235 ft 388 kts 293°
2026-04-20 14:39 37.00739 26.16798 35848 ft 382 kts 293°
2026-04-20 14:39 37.01768 26.13752 35413 ft 378 kts 293°
2026-04-20 14:40 37.02786 26.10736 35017 ft 374 kts 293°
2026-04-20 14:40 37.03796 26.07740 34543 ft 372 kts 293°
2026-04-20 14:40 37.04782 26.04810 34168 ft 368 kts 293°
2026-04-20 14:40 37.05768 26.01881 33887 ft 363 kts 293°
2026-04-20 14:41 37.06748 25.98965 33566 ft 363 kts 293°
2026-04-20 14:41 37.07727 25.96049 33147 ft 361 kts 293°
2026-04-20 14:41 37.08695 25.93162 32660 ft 358 kts 293°
2026-04-20 14:41 37.09656 25.90295 32200 ft 354 kts 293°
2026-04-20 14:42 37.10603 25.87465 31777 ft 351 kts 293°
2026-04-20 14:42 37.11545 25.84649 31382 ft 349 kts 293°
2026-04-20 14:42 37.12471 25.81878 30975 ft 347 kts 293°
2026-04-20 14:42 37.13397 25.79103 30586 ft 344 kts 293°
2026-04-20 14:43 37.14317 25.76344 30194 ft 342 kts 293°
2026-04-20 14:43 37.15232 25.73601 29763 ft 340 kts 293°
2026-04-20 14:43 37.16137 25.70881 29355 ft 337 kts 293°
2026-04-20 14:43 37.17039 25.68169 28970 ft 336 kts 293°
2026-04-20 14:44 37.17925 25.65502 28607 ft 334 kts 293°
2026-04-20 14:44 37.18817 25.62816 28240 ft 332 kts 293°
2026-04-20 14:44 37.19701 25.60150 27876 ft 330 kts 293°
2026-04-20 14:44 37.20579 25.57501 27522 ft 328 kts 293°
2026-04-20 14:45 37.21452 25.54865 27171 ft 327 kts 293°
2026-04-20 14:45 37.22322 25.52235 26819 ft 325 kts 293°
2026-04-20 14:45 37.23187 25.49619 26473 ft 324 kts 293°
2026-04-20 14:45 37.24048 25.47015 26128 ft 323 kts 293°
2026-04-20 14:46 37.24906 25.44415 25785 ft 321 kts 293°
2026-04-20 14:46 37.25759 25.41832 25455 ft 320 kts 293°
2026-04-20 14:46 37.26608 25.39253 25099 ft 319 kts 293°
2026-04-20 14:46 37.27449 25.36681 24758 ft 318 kts 291°
2026-04-20 14:47 37.28141 25.34082 24389 ft 317 kts 289°
2026-04-20 14:47 37.28845 25.31437 24065 ft 315 kts 290°
2026-04-20 14:47 37.29535 25.28867 23760 ft 315 kts 290°
2026-04-20 14:48 37.30935 25.23678 23052 ft 312 kts 290°
2026-04-20 14:48 37.31632 25.21097 22715 ft 311 kts 290°
2026-04-20 14:48 37.32324 25.18530 22392 ft 310 kts 290°
2026-04-20 14:48 37.33015 25.15965 22070 ft 308 kts 290°
2026-04-20 14:49 37.33702 25.13417 21786 ft 306 kts 290°
2026-04-20 14:49 37.34384 25.10886 21370 ft 306 kts 290°
2026-04-20 14:49 37.35058 25.08382 21010 ft 304 kts 290°
2026-04-20 14:49 37.35733 25.05868 20611 ft 303 kts 290°
2026-04-20 14:50 37.36406 25.03358 20244 ft 302 kts 290°
2026-04-20 14:50 37.37072 25.00854 19869 ft 300 kts 290°
2026-04-20 14:50 37.37734 24.98367 19493 ft 299 kts 290°
2026-04-20 14:50 37.38393 24.95890 19135 ft 298 kts 290°
2026-04-20 14:51 37.39048 24.93423 18779 ft 297 kts 290°
2026-04-20 14:51 37.39701 24.90965 18425 ft 296 kts 290°
2026-04-20 14:51 37.40345 24.88537 18067 ft 295 kts 290°
2026-04-20 14:51 37.40991 24.86095 17696 ft 293 kts 290°
2026-04-20 14:52 37.41658 24.83680 17283 ft 292 kts 295°
2026-04-20 14:52 37.42808 24.81599 16929 ft 288 kts 313°
2026-04-20 14:52 37.44224 24.79812 16510 ft 289 kts 315°
2026-04-20 14:52 37.45655 24.78049 16151 ft 287 kts 315°
2026-04-20 14:53 37.47080 24.76288 15794 ft 286 kts 315°
2026-04-20 14:53 37.48499 24.74531 15439 ft 285 kts 315°
2026-04-20 14:53 37.49892 24.72804 15096 ft 284 kts 315°
2026-04-20 14:53 37.51296 24.71058 14750 ft 283 kts 315°
2026-04-20 14:54 37.52697 24.69311 14411 ft 282 kts 315°
2026-04-20 14:54 37.53618 24.68158 14186 ft 281 kts 315°
2026-04-20 14:54 37.55003 24.66421 13830 ft 281 kts 315°
2026-04-20 14:54 37.56401 24.64665 13337 ft 285 kts 315°
2026-04-20 14:55 37.57821 24.62888 12846 ft 289 kts 315°
2026-04-20 14:55 37.59255 24.61100 12367 ft 292 kts 315°
2026-04-20 14:55 37.60718 24.59288 11884 ft 295 kts 315°
2026-04-20 14:55 37.62193 24.57468 11410 ft 298 kts 315°
2026-04-20 14:56 37.63665 24.55658 10938 ft 300 kts 315°
2026-04-20 14:56 37.65172 24.53813 10478 ft 303 kts 315°
2026-04-20 14:56 37.66687 24.51964 10119 ft 301 kts 315°
2026-04-20 14:56 37.68190 24.50139 9815 ft 298 kts 315°
2026-04-20 14:57 37.69675 24.48335 9483 ft 295 kts 315°
2026-04-20 14:57 37.71151 24.46545 9152 ft 292 kts 315°
2026-04-20 14:57 37.72592 24.44797 8820 ft 289 kts 315°
2026-04-20 14:57 37.74036 24.43045 8490 ft 287 kts 315°
2026-04-20 14:58 37.75469 24.41307 8007 ft 282 kts 315°
2026-04-20 14:58 37.76869 24.39608 7548 ft 276 kts 315°
2026-04-20 14:58 37.78242 24.37950 7097 ft 270 kts 317°
2026-04-20 14:58 37.79811 24.36669 6639 ft 267 kts 333°
2026-04-20 14:59 37.81489 24.35746 6201 ft 264 kts 335°
2026-04-20 14:59 37.83172 24.34860 5730 ft 260 kts 335°
2026-04-20 14:59 37.84836 24.33983 5273 ft 258 kts 335°
2026-04-20 14:59 37.86489 24.33113 4827 ft 256 kts 335°
2026-04-20 15:00 37.88133 24.32262 4342 ft 256 kts 335°
2026-04-20 15:00 37.89788 24.31421 4046 ft 255 kts 335°
2026-04-20 15:00 37.91428 24.30582 3990 ft 258 kts 335°
2026-04-20 15:00 37.93098 24.29735 3993 ft 258 kts 335°
2026-04-20 15:01 37.94762 24.28883 4000 ft 257 kts 335°
2026-04-20 15:01 37.96426 24.28033 3990 ft 258 kts 335°
2026-04-20 15:01 37.98092 24.27177 3990 ft 258 kts 335°
2026-04-20 15:01 37.99763 24.26332 4003 ft 259 kts 335°
2026-04-20 15:02 38.01426 24.25443 3977 ft 258 kts 327°
2026-04-20 15:02 38.02739 24.23967 3969 ft 247 kts 307°
2026-04-20 15:02 38.03764 24.22298 3733 ft 236 kts 305°
2026-04-20 15:02 38.04760 24.20669 3377 ft 230 kts 305°
2026-04-20 15:03 38.05734 24.19082 3074 ft 225 kts 305°
2026-04-20 15:03 38.06660 24.17579 3035 ft 205 kts 305°
2026-04-20 15:03 38.07504 24.16173 2996 ft 193 kts 303°
2026-04-20 15:03 38.07992 24.14681 2921 ft 181 kts 270°
2026-04-20 15:04 38.07824 24.13124 2984 ft 179 kts 256°
2026-04-20 15:04 38.07526 24.11600 3030 ft 177 kts 255°
2026-04-20 15:04 38.07226 24.10077 2999 ft 181 kts 255°
2026-04-20 15:04 38.06913 24.08506 2993 ft 184 kts 255°
2026-04-20 15:05 38.06602 24.06946 3018 ft 181 kts 255°
2026-04-20 15:05 38.06246 24.05399 3025 ft 184 kts 244°
2026-04-20 15:05 38.05397 24.04259 2883 ft 171 kts 216°
2026-04-20 15:05 38.04461 24.03447 2622 ft 155 kts 217°
2026-04-20 15:06 38.03580 24.02734 2485 ft 148 kts 214°
2026-04-20 15:06 38.02755 24.01999 2294 ft 140 kts 217°
2026-04-20 15:06 38.01991 24.01271 2112 ft 135 kts 217°
2026-04-20 15:06 38.01244 24.00561 1880 ft 134 kts 217°
2026-04-20 15:07 38.00489 23.99851 1527 ft 137 kts 216°
2026-04-20 15:07 37.99735 23.99117 1355 ft 136 kts 217°
2026-04-20 15:07 37.98983 23.98395 1144 ft 135 kts 217°
2026-04-20 15:07 37.98235 23.97696 955 ft 132 kts 218°
2026-04-20 15:08 37.97508 23.96976 833 ft 134 kts 217°
2026-04-20 15:08 37.96762 23.96258 688 ft 136 kts 216°
2026-04-20 15:08 37.96006 23.95548 550 ft 137 kts 217°
2026-04-20 15:08 37.95246 23.94827 383 ft 131 kts 217°
2026-04-20 15:09 37.94545 23.94168 310 ft 120 kts 217°
2026-04-20 15:09 37.94036 23.93685 300 ft 57 kts 217°
2026-04-20 15:09 37.93748 23.93411 296 ft 40 kts 217°
2026-04-20 15:09 37.93534 23.93214 294 ft 36 kts 210°
2026-04-20 15:10 37.93313 23.93134 298 ft 18 kts 185°
2026-04-20 15:10 37.93292 23.93133 300 ft 0 kts 179°
2026-04-20 15:10 37.93275 23.93139 298 ft 8 kts 154°
2026-04-20 15:10 37.93264 23.93230 302 ft 13 kts 43°
2026-04-20 15:11 37.93402 23.93362 301 ft 24 kts 36°
2026-04-20 15:11 37.93448 23.93406 302 ft 0 kts 58°
2026-04-20 15:11 37.93445 23.93415 301 ft 3 kts 117°
2026-04-20 15:11 37.93394 23.93500 304 ft 22 kts 126°
2026-04-20 15:12 37.93269 23.93710 303 ft 34 kts 127°
2026-04-20 15:12 37.93121 23.93958 305 ft 37 kts 127°
2026-04-20 15:12 37.93045 23.94084 304 ft 10 kts 127°
2026-04-20 15:12 37.93010 23.94141 304 ft 0 kts 127°
2026-04-20 15:13 37.93007 23.94145 305 ft 2 kts 127°
2026-04-20 15:13 37.93006 23.94160 304 ft 1 kts 66°
2026-04-20 15:13 37.93042 23.94199 304 ft 15 kts 38°
2026-04-20 15:13 37.93079 23.94235 304 ft 0 kts 38°
2026-04-20 15:14 37.93080 23.94235 304 ft 0 kts 38°